Wind_Speed
138 139 139 138 137 134 129 122 114 106 96 89 83 79 76 75 74 74 75 75 76 76 77 77 78 80 81 82 83 84 85 87 88 88 89 89 89 88 88 88 88 88
140 141 140 139 136 131 124 115 106 97 89 83 79 76 75 75 75 75 76 77 77 78 79 80 80 81 82 83 84 85 86 88 89 90 91 91 92 92 92 91 91 92
143 142 141 138 133 126 117 107 97 89 84 80 77 76 76 76 76 77 77 78 79 80 81 82 82 83 84 85 86 87 88 90 90 92 93 94 95 95 95 95 95 95
144 142 139 133 127 119 109 99 91 86 82 80 78 78 78 78 79 79 79 80 81 82 83 83 84 85 86 87 88 89 90 91 92 93 94 96 97 97 98 98 98 99
144 139 134 126 118 109 100 93 89 86 84 82 81 81 81 82 82 82 82 82 83 84 84 85 86 87 88 88 90 91 92 93 94 95 96 97 99 99 100 101 101 102
140 134 125 117 108 101 95 91 89 88 87 86 85 85 85 85 85 85 85 85 85 86 86 87 88 89 89 90 92 93 94 94 96 96 98 99 100 101 102 103 103 104
133 125 116 107 100 96 93 92 92 92 92 91 90 89 88 88 88 88 87 87 87 88 88 89 90 90 91 92 93 94 95 96 97 98 99 101 102 103 104 104 105 106
124 114 106 100 97 95 95 95 95 95 95 95 94 93 92 91 91 90 90 90 90 90 90 90 91 92 93 94 94 95 97 98 99 100 101 102 103 104 105 106 107 107
113 106 101 98 97 97 98 98 98 98 98 97 97 96 95 94 93 93 92 92 92 92 92 92 92 92 93 94 95 96 97 99 100 101 102 103 104 105 107 107 108 109
106 102 101 100 99 100 100 100 100 100 100 99 98 97 96 95 95 94 93 93 93 93 93 93 93 93 93 94 95 96 98 99 101 102 103 104 105 106 107 108 109 109
107 105 104 103 103 102 102 102 101 101 100 100 99 98 96 95 94 94 94 93 93 93 92 92 92 93 94 95 95 97 98 99 101 102 103 104 105 106 107 108 109 109
111 110 109 107 106 105 104 103 102 101 100 99 98 97 96 94 93 92 92 92 92 91 91 91 92 93 94 95 95 96 98 99 100 101 102 103 104 105 106 107 108 109
114 113 112 110 108 106 104 102 101 100 98 96 95 94 94 92 91 90 90 90 90 90 89 90 91 92 93 94 94 95 97 98 100 100 101 102 102 104 105 106 107 108
115 114 112 110 108 105 102 100 99 97 96 94 93 92 91 90 89 88 87 87 88 88 88 88 90 91 91 92 92 93 94 96 97 99 99 100 100 101 102 103 104 105
115 113 110 108 105 102 99 97 96 94 93 92 90 89 89 88 87 86 85 85 86 86 86 87 88 89 90 90 90 90 91 92 94 96 97 97 98 99 100 100 101 102
114 110 107 104 101 99 96 94 93 92 91 90 89 88 88 87 86 86 85 85 85 85 85 86 87 87 88 88 88 88 89 90 92 93 94 95 96 97 98 99 100 101
111 107 103 100 98 96 94 92 91 91 90 89 88 88 87 87 87 86 85 85 84 85 85 85 86 86 86 87 87 88 88 88 90 91 92 94 95 96 97 97 99 100
107 104 101 99 96 94 93 91 90 90 89 89 88 87 87 87 87 87 86 85 85 85 85 85 85 85 86 86 87 87 87 87 88 89 91 93 94 95 96 96 97 98
104 102 100 98 95 94 92 90 89 89 89 88 88 87 87 87 87 87 87 86 85 85 85 86 86 86 86 86 86 87 87 86 87 88 90 92 93 94 95 95 96 97
102 101 99 98 96 94 92 91 89 88 88 88 87 87 86 86 87 87 87 86 86 86 86 86 86 87 87 87 87 88 88 87 87 88 90 91 92 93 94 95 96 96
100 99 98 97 96 95 93 92 90 89 88 88 87 87 87 86 87 87 87 87 86 86 86 86 87 87 87 88 88 89 89 88 88 89 91 92 93 94 94 94 95 96
98 97 96 96 95 94 94 93 92 91 89 88 88 87 87 87 87 87 87 87 87 86 86 87 87 87 88 88 89 89 90 90 90 90 91 93 93 94 94 95 95 96
96 95 95 94 93 93 93 93 92 91 91 90 89 88 87 86 86 87 87 87 87 87 87 87 88 88 88 88 89 89 89 89 90 91 92 93 94 94 94 95 95 95
95 94 93 92 92 91 91 91 91 91 90 90 89 89 88 87 86 86 86 86 87 87 87 87 88 88 88 89 89 89 88 88 89 90 91 92 93 93 94 94 94 94
93 92 91 90 90 89 89 89 89 89 89 89 89 88 88 87 86 85 85 86 86 86 87 87 87 88 88 88 89 89 89 88 89 89 90 90 91 91 92 92 92 92
91 90 89 88 87 87 87 87 87 87 87 87 87 87 87 87 86 85 85 85 85 85 86 86 86 87 87 87 88 89 89 88 88 89 89 89 89 90 90 90 90 90
Wind_Direction
307 306 306 306 305 305 304 303 302 300 297 295 292 290 288 286 284 282 281 279 277 275 274 272 271 270 269 269 268 268 268 268 268 268 268 267 267 266 265 264 264 263
306 306 306 305 305 304 303 302 300 298 295 293 291 289 287 285 284 282 280 278 277 275 274 273 271 271 270 269 268 268 267 267 267 267 267 267 266 266 265 264 264 263
306 306 305 305 304 303 302 300 298 295 293 291 289 288 286 284 283 281 279 278 276 275 274 273 272 271 270 269 268 267 266 266 266 266 266 266 266 266 266 265 265 264
306 306 305 304 303 302 301 299 296 294 292 290 289 287 285 284 282 281 279 278 276 275 274 273 272 271 270 269 268 267 267 266 265 265 265 265 265 265 265 265 265 264
306 305 304 303 302 301 299 297 295 294 292 290 289 287 286 284 282 281 279 278 276 275 274 273 272 271 270 269 268 267 267 266 265 265 264 264 264 264 264 264 264 264
305 304 303 302 301 299 298 296 295 294 292 291 289 287 286 284 283 281 279 278 276 275 273 272 271 270 269 269 268 267 266 266 265 265 264 264 264 264 264 264 264 264
304 303 302 301 299 298 297 296 295 294 293 291 290 288 286 285 283 281 280 278 276 274 273 272 271 270 269 268 267 267 266 266 265 264 264 264 264 263 263 263 263 263
303 302 301 300 299 298 297 296 295 294 293 292 291 289 288 286 284 282 281 279 277 275 273 271 270 269 268 267 267 266 266 265 265 264 264 263 263 263 263 263 263 263
302 301 300 299 298 297 297 296 295 294 293 291 290 289 288 286 285 283 281 280 278 276 274 272 271 269 267 267 266 266 265 265 264 264 263 263 263 263 263 263 263 263
301 300 299 299 298 297 296 295 294 293 292 291 290 288 287 286 285 283 281 280 278 277 275 274 273 271 269 267 266 265 264 264 263 263 263 263 263 262 263 263 263 263
301 300 300 299 298 297 296 295 294 292 291 290 289 288 286 285 284 282 281 279 278 277 276 274 273 272 270 268 267 266 264 264 263 263 263 263 263 263 262 262 262 262
302 301 300 299 298 297 296 295 293 292 291 289 288 287 285 284 283 281 280 279 278 276 275 274 273 271 270 269 268 267 266 265 264 263 263 263 263 263 263 263 262 262
301 300 300 299 298 297 295 294 293 291 290 288 287 286 284 283 282 281 279 278 277 276 275 273 272 271 270 269 268 267 266 266 266 265 264 264 263 263 263 263 263 263
300 299 299 298 297 296 295 293 292 290 289 287 286 285 284 283 282 280 279 278 276 275 274 273 272 271 270 270 269 268 267 266 266 266 265 265 264 264 263 263 263 263
299 298 297 297 296 295 294 292 291 289 288 287 286 284 283 282 281 280 279 277 276 275 274 273 272 272 271 270 269 268 267 266 266 265 265 264 264 264 263 263 262 262
298 298 297 296 295 294 293 291 290 289 288 287 286 284 283 282 281 280 278 277 276 275 274 273 272 272 271 271 270 269 267 266 266 265 265 264 264 263 263 262 262 261
298 297 296 295 294 293 292 291 289 288 287 286 285 284 283 282 281 280 278 277 276 275 274 274 273 272 271 271 270 269 268 267 266 266 266 265 265 264 263 263 262 262
297 297 296 295 294 292 291 290 289 288 287 286 285 284 283 282 281 280 279 278 277 276 275 274 273 273 272 271 270 270 269 268 267 267 266 266 265 265 265 264 264 264
297 296 295 294 293 292 290 289 288 287 286 285 284 283 282 281 280 280 279 278 277 276 276 275 274 273 273 272 271 271 270 269 268 267 267 266 266 266 266 266 266 266
296 295 294 293 292 291 290 289 287 286 285 284 283 282 281 280 279 279 278 278 277 276 276 275 274 274 273 272 272 271 270 270 269 268 268 267 267 267 267 267 267 267
295 294 293 292 291 290 289 288 287 286 284 283 282 281 280 279 279 278 278 277 276 276 275 274 274 273 273 272 271 271 271 271 270 269 269 269 268 268 268 268 268 268
293 292 292 291 290 289 288 288 287 285 284 283 282 281 280 279 278 278 278 277 277 276 275 274 274 273 272 272 271 271 271 271 270 270 270 269 269 269 269 269 268 268
292 291 290 290 289 288 287 287 286 285 285 284 282 281 280 279 278 278 278 277 277 276 276 275 274 273 273 272 271 271 270 270 270 270 270 270 269 269 269 268 268 267
292 291 290 289 288 287 287 286 285 285 284 284 283 282 281 280 279 278 277 277 276 276 275 274 274 274 273 273 272 272 271 270 270 269 269 269 269 268 268 268 267 267
292 291 290 289 288 287 286 286 285 284 284 283 283 282 281 281 279 278 278 277 276 276 275 274 274 274 273 273 273 273 272 271 271 270 269 269 269 268 268 268 267 267
291 290 290 289 288 287 287 286 285 284 284 283 283 282 281 280 280 279 278 277 276 275 275 274 274 274 273 273 273 273 272 272 271 271 271 270 270 270 269 269 269 269
Height
10356 10348 10341 10333 10326 10319 10314 10307 10300 10294 10289 10284 10279 10275 10272 10270 10268 10265 10263 10261 10259 10258 10257 10256 10255 10254 10253 10252 10250 10249 10247 10245 10244 10243 10243 10242 10242 10241 10241 10241 10241 10241
10339 10331 10323 10315 10307 10301 10296 10290 10284 10278 10274 10270 10267 10263 10260 10258 10256 10254 10252 10250 10248 10246 10245 10244 10243 10241 10240 10239 10238 10236 10234 10232 10231 10230 10230 10229 10228 10228 10227 10227 10227 10227
10321 10313 10304 10296 10288 10281 10277 10273 10269 10265 10260 10257 10254 10252 10249 10246 10244 10242 10240 10238 10236 10234 10232 10231 10230 10229 10227 10226 10224 10222 10220 10219 10218 10217 10216 10214 10213 10213 10213 10213 10213 10212
10302 10294 10285 10277 10270 10263 10259 10256 10252 10250 10247 10244 10242 10239 10237 10234 10232 10230 10228 10226 10223 10221 10219 10218 10216 10215 10213 10212 10210 10208 10206 10205 10204 10204 10203 10200 10199 10199 10199 10198 10198 10197
10284 10275 10267 10260 10253 10247 10243 10239 10236 10234 10232 10230 10228 10226 10223 10221 10218 10216 10214 10212 10210 10208 10206 10204 10202 10201 10199 10197 10195 10193 10192 10190 10189 10189 10188 10186 10185 10185 10184 10183 10183 10182
10265 10257 10250 10243 10237 10232 10228 10225 10221 10218 10216 10215 10213 10211 10209 10207 10204 10202 10200 10198 10196 10194 10192 10189 10188 10186 10185 10183 10180 10178 10177 10176 10175 10174 10173 10171 10170 10170 10169 10168 10168 10167
10245 10239 10233 10227 10222 10217 10213 10210 10206 10202 10199 10197 10195 10194 10193 10191 10188 10186 10184 10183 10181 10179 10177 10175 10173 10171 10169 10168 10165 10163 10162 10160 10159 10159 10158 10156 10155 10154 10153 10153 10153 10152
10228 10222 10217 10212 10207 10202 10198 10194 10190 10186 10182 10179 10177 10175 10173 10172 10170 10168 10167 10165 10163 10162 10161 10159 10158 10156 10154 10152 10150 10148 10147 10145 10144 10143 10142 10141 10139 10138 10138 10137 10137 10137
10213 10207 10202 10198 10193 10188 10183 10178 10174 10169 10166 10163 10160 10157 10155 10153 10151 10149 10148 10146 10144 10143 10142 10141 10140 10139 10138 10136 10134 10132 10131 10129 10128 10127 10126 10125 10124 10123 10122 10121 10121 10121
10196 10192 10187 10183 10178 10173 10168 10163 10158 10153 10148 10145 10142 10139 10137 10135 10133 10131 10129 10127 10125 10124 10122 10121 10121 10120 10119 10119 10117 10116 10114 10113 10111 10110 10109 10109 10108 10107 10106 10105 10105 10105
10175 10172 10169 10164 10160 10155 10150 10145 10140 10136 10131 10127 10123 10121 10119 10117 10115 10112 10110 10108 10107 10105 10104 10103 10102 10101 10099 10099 10099 10098 10097 10096 10095 10094 10093 10092 10091 10091 10090 10089 10088 10088
10154 10151 10148 10144 10140 10136 10131 10126 10121 10117 10114 10109 10105 10103 10100 10099 10097 10095 10092 10091 10089 10088 10087 10086 10084 10082 10081 10080 10080 10080 10079 10079 10078 10077 10077 10076 10075 10074 10073 10072 10071 10071
10137 10133 10129 10125 10120 10116 10112 10108 10102 10098 10095 10092 10088 10085 10083 10081 10079 10078 10076 10074 10072 10071 10070 10069 10067 10065 10064 10064 10064 10063 10062 10061 10060 10060 10060 10060 10059 10058 10057 10056 10055 10054
10122 10117 10112 10107 10103 10099 10095 10090 10085 10081 10078 10075 10072 10069 10066 10064 10063 10061 10060 10057 10055 10054 10053 10052 10050 10049 10048 10048 10048 10047 10047 10045 10044 10043 10043 10043 10042 10041 10040 10040 10039 10039
10106 10102 10097 10091 10087 10082 10078 10074 10069 10064 10061 10058 10056 10054 10051 10049 10047 10045 10044 10042 10040 10038 10037 10036 10034 10033 10032 10031 10031 10031 10030 10029 10028 10027 10026 10026 10024 10023 10022 10022 10023 10022
10087 10084 10080 10076 10071 10066 10062 10058 10053 10049 10045 10042 10040 10038 10036 10034 10032 10030 10028 10026 10024 10023 10021 10020 10019 10017 10016 10015 10015 10014 10014 10013 10011 10010 10010 10008 10007 10006 10005 10006 10005 10005
10068 10065 10062 10058 10054 10050 10046 10043 10039 10034 10030 10027 10025 10022 10020 10017 10016 10015 10013 10011 10009 10008 10006 10005 10003 10002 10001 9999 9998 9998 9998 9997 9996 9995 9993 9991 9989 9989 9989 9989 9989 9988
10051 10047 10044 10040 10038 10034 10031 10027 10024 10020 10016 10013 10010 10007 10004 10002 9999 9998 9997 9996 9994 9992 9991 9989 9988 9986 9985 9984 9983 9982 9982 9982 9982 9981 9977 9974 9973 9973 9973 9973 9972 9972
10035 10030 10026 10023 10020 10017 10015 10012 10009 10005 10002 9998 9996 9993 9990 9987 9985 9982 9981 9980 9979 9977 9975 9974 9972 9970 9969 9968 9967 9966 9966 9966 9967 9965 9961 9959 9958 9957 9957 9958 9957 9956
10019 10014 10009 10006 10003 10000 9997 9995 9993 9990 9986 9983 9981 9978 9976 9973 9970 9968 9966 9965 9964 9962 9960 9959 9957 9955 9953 9952 9951 9950 9950 9951 9951 9950 9946 9944 9943 9942 9942 9942 9941 9940
10004 9999 9994 9990 9986 9983 9980 9977 9975 9973 9971 9968 9965 9963 9961 9958 9956 9953 9951 9950 9949 9948 9946 9943 9942 9940 9938 9936 9935 9934 9934 9935 9935 9934 9931 9929 9927 9926 9926 9926 9925 9925
9989 9984 9979 9975 9971 9968 9964 9961 9958 9956 9954 9952 9950 9948 9946 9944 9941 9939 9936 9935 9934 9933 9931 9928 9926 9925 9924 9922 9920 9919 9920 9920 9919 9918 9915 9913 9911 9911 9910 9910 9909 9909
9973 9969 9965 9961 9957 9953 9949 9946 9943 9940 9938 9936 9934 9932 9931 9929 9927 9925 9922 9921 9919 9917 9916 9913 9910 9909 9909 9907 9905 9904 9905 9904 9903 9902 9900 9898 9895 9894 9894 9893 9892 9891
9958 9954 9950 9946 9943 9939 9935 9932 9929 9925 9923 9920 9918 9916 9914 9913 9912 9911 9908 9906 9904 9902 9900 9898 9895 9893 9893 9892 9889 9888 9889 9888 9887 9885 9884 9882 9879 9878 9877 9876 9875 9874
9943 9939 9935 9932 9929 9925 9921 9918 9914 9911 9909 9906 9903 9901 9898 9897 9896 9895 9892 9890 9888 9886 9884 9882 9880 9878 9877 9876 9874 9872 9872 9872 9870 9868 9867 9865 9863 9862 9860 9860 9859 9858
9928 9924 9921 9918 9914 9911 9907 9903 9900 9897 9894 9892 9889 9886 9884 9881 9879 9878 9876 9874 9872 9870 9868 9866 9865 9863 9861 9861 9859 9856 9855 9855 9854 9852 9850 9849 9848 9846 9844 9843 9843 9843